Location: *
(46.3500°N, 10.9000°E)
Time: 02:47:51
(UTC+00:00)

Envisat - Visible Passes

Search period start: 19 August 2022 00:00
Search period end: 29 August 2022 00:00
Orbit: 763 x 765 km, 98.2° (Epoch: 18 August)

Date Brightness Start Highest point End Pass type
(mag) Time Alt. Az. Time Alt. Az. Time Alt. Az.
19 Aug 3.4 03:38:53 10° NNE 03:43:58 68° ESE 03:49:01 10° S visible
20 Aug 4.7 03:02:18 10° NNE 03:06:52 32° E 03:11:23 10° SSE visible
21 Aug 5.7 02:26:34 10° NE 02:29:32 15° E 02:32:31 10° SE visible
22 Aug 3.8 03:27:08 10° NNE 03:32:08 54° E 03:37:05 10° S visible
23 Aug 5.1 02:50:44 10° NE 02:54:58 26° E 02:59:09 10° SSE visible
24 Aug 5.8 02:15:37 10° ENE 02:17:33 12° E 02:19:30 10° ESE visible
24 Aug 3.1 03:52:10 10° NNE 03:57:18 89° E 04:02:23 10° SSW visible
25 Aug 4.2 03:15:25 10° NNE 03:20:15 42° E 03:25:04 10° S visible
26 Aug 5.4 02:39:15 10° NE 02:43:01 21° E 02:46:46 10° SE visible
27 Aug 3.3 03:40:22 10° NNE 03:45:28 72° ESE 03:50:32 10° S visible
28 Aug 4.6 03:03:45 10° NNE 03:08:22 34° E 03:12:57 10° SSE visible
